Time,TemperatureF,DewpointF,PressureIn,WindDirection,WindDirectionDegrees,WindSpeedMPH,WindSpeedGustMPH,Humidity,HourlyPrecipIn,Conditions,Clouds,dailyrainin,SoftwareType,DateUTC
2013-07-13 00:03:00,65.4,60.1,29.99,SE,142,2.0,2.0,83,0.00,,,0.00,Wunderground v.1.15,2013-07-13 05:03:00,
2013-07-13 00:08:00,65.2,59.9,30.00,SE,144,2.0,5.0,83,0.00,,,0.00,Wunderground v.1.15,2013-07-13 05:08:00,
2013-07-13 00:14:00,65.1,60.1,30.00,SSE,163,4.0,4.0,84,0.00,,,0.00,Wunderground v.1.15,2013-07-13 05:14:00,
2013-07-13 00:20:00,64.9,59.9,30.00,SSE,163,1.0,4.0,84,0.00,,,0.00,Wunderground v.1.15,2013-07-13 05:20:00,
2013-07-13 00:25:00,64.8,59.9,30.00,SE,130,2.0,2.0,84,0.00,,,0.00,Wunderground v.1.15,2013-07-13 05:25:00,
2013-07-13 00:32:00,64.7,60.1,30.01,SE,144,4.0,4.0,85,0.00,,,0.00,Wunderground v.1.15,2013-07-13 05:32:00,
2013-07-13 00:38:00,64.6,60.0,30.01,SSE,158,4.0,4.0,85,0.00,,,0.00,Wunderground v.1.15,2013-07-13 05:38:00,
2013-07-13 00:44:00,64.4,59.8,30.01,SSE,155,1.0,3.0,85,0.00,,,0.00,Wunderground v.1.15,2013-07-13 05:44:00,
2013-07-13 00:50:00,64.3,59.7,30.01,SE,146,1.0,3.0,85,0.00,,,0.00,Wunderground v.1.15,2013-07-13 05:50:00,
2013-07-13 00:55:00,64.1,59.5,30.01,SE,140,1.0,2.0,85,0.00,,,0.00,Wunderground v.1.15,2013-07-13 05:55:00,
2013-07-13 01:00:00,64.1,59.5,30.02,SE,132,2.0,2.0,85,0.00,,,0.00,Wunderground v.1.15,2013-07-13 06:00:00,
2013-07-13 01:05:00,64.0,59.4,30.01,SSE,163,2.0,2.0,85,0.00,,,0.00,Wunderground v.1.15,2013-07-13 06:05:00,
2013-07-13 01:12:00,63.9,59.3,30.01,SSE,151,1.0,2.0,85,0.00,,,0.00,Wunderground v.1.15,2013-07-13 06:12:00,
2013-07-13 01:18:00,63.7,59.1,30.01,ESE,123,1.0,2.0,85,0.00,,,0.00,Wunderground v.1.15,2013-07-13 06:18:00,
2013-07-13 01:23:00,63.6,59.0,30.01,SSE,164,1.0,1.0,85,0.00,,,0.00,Wunderground v.1.15,2013-07-13 06:23:00,
2013-07-13 01:29:00,63.5,59.2,30.01,SSE,154,1.0,1.0,86,0.00,,,0.00,Wunderground v.1.15,2013-07-13 06:29:00,
2013-07-13 01:35:00,63.5,58.9,30.01,South,169,1.0,1.0,85,0.00,,,0.00,Wunderground v.1.15,2013-07-13 06:35:00,
2013-07-13 01:42:00,63.6,59.0,30.01,SE,134,1.0,1.0,85,0.00,,,0.00,Wunderground v.1.15,2013-07-13 06:42:00,
2013-07-13 01:48:00,63.7,59.1,30.01,SSE,154,1.0,1.0,85,0.00,,,0.00,Wunderground v.1.15,2013-07-13 06:48:00,
2013-07-13 01:53:00,63.8,59.2,30.01,SE,144,1.0,1.0,85,0.00,,,0.00,Wunderground v.1.15,2013-07-13 06:53:00,
2013-07-13 01:59:00,63.8,58.9,30.01,SE,141,2.0,2.0,84,0.00,,,0.00,Wunderground v.1.15,2013-07-13 06:59:00,
2013-07-13 02:04:00,63.9,59.0,30.01,SSE,148,4.0,4.0,84,0.00,,,0.00,Wunderground v.1.15,2013-07-13 07:04:00,
2013-07-13 02:09:00,64.0,59.1,30.01,SE,125,5.0,5.0,84,0.00,,,0.00,Wunderground v.1.15,2013-07-13 07:09:00,
2013-07-13 02:14:00,64.0,58.7,30.01,SSE,160,2.0,5.0,83,0.00,,,0.00,Wunderground v.1.15,2013-07-13 07:14:00,
2013-07-13 02:19:00,63.7,58.8,30.01,SSE,148,5.0,5.0,84,0.00,,,0.00,Wunderground v.1.15,2013-07-13 07:19:00,
2013-07-13 02:24:00,63.3,58.7,30.01,SSE,151,4.0,5.0,85,0.00,,,0.00,Wunderground v.1.15,2013-07-13 07:24:00,
2013-07-13 02:29:00,62.9,58.3,30.01,SSE,151,4.0,5.0,85,0.00,,,0.00,Wunderground v.1.15,2013-07-13 07:29:00,
2013-07-13 02:34:00,62.7,58.5,30.01,SSE,153,2.0,4.0,86,0.00,,,0.00,Wunderground v.1.15,2013-07-13 07:34:00,
2013-07-13 02:39:00,62.4,58.5,30.01,SSE,147,2.0,4.0,87,0.00,,,0.00,Wunderground v.1.15,2013-07-13 07:39:00,
2013-07-13 02:44:00,62.3,58.4,30.01,SE,145,4.0,4.0,87,0.00,,,0.00,Wunderground v.1.15,2013-07-13 07:44:00,
2013-07-13 02:49:00,62.1,58.2,30.00,SSE,148,2.0,5.0,87,0.00,,,0.00,Wunderground v.1.15,2013-07-13 07:49:00,
2013-07-13 02:54:00,62.0,58.1,30.00,SSE,157,2.0,4.0,87,0.00,,,0.00,Wunderground v.1.15,2013-07-13 07:54:00,
2013-07-13 02:59:00,61.9,58.0,30.00,South,169,2.0,4.0,87,0.00,,,0.00,Wunderground v.1.15,2013-07-13 07:59:00,
2013-07-13 03:04:00,61.8,58.2,30.00,SSE,155,2.0,4.0,88,0.00,,,0.00,Wunderground v.1.15,2013-07-13 08:04:00,
2013-07-13 03:09:00,61.7,58.1,30.00,SSE,153,2.0,4.0,88,0.00,,,0.00,Wunderground v.1.15,2013-07-13 08:09:00,
2013-07-13 03:14:00,61.7,58.1,30.00,SSE,158,4.0,5.0,88,0.00,,,0.00,Wunderground v.1.15,2013-07-13 08:14:00,
2013-07-13 03:19:00,61.6,58.0,30.00,SSE,155,2.0,5.0,88,0.00,,,0.00,Wunderground v.1.15,2013-07-13 08:19:00,
2013-07-13 03:24:00,61.5,57.9,30.00,SSE,147,2.0,4.0,88,0.00,,,0.00,Wunderground v.1.15,2013-07-13 08:24:00,
2013-07-13 03:29:00,61.4,57.8,30.01,SSE,147,2.0,4.0,88,0.00,,,0.00,Wunderground v.1.15,2013-07-13 08:29:00,
2013-07-13 03:34:00,61.4,58.1,30.01,SSE,153,4.0,4.0,89,0.00,,,0.00,Wunderground v.1.15,2013-07-13 08:34:00,
2013-07-13 03:39:00,61.3,58.0,30.01,SSE,154,2.0,5.0,89,0.00,,,0.00,Wunderground v.1.15,2013-07-13 08:39:00,
2013-07-13 03:44:00,61.3,58.0,30.01,SSE,150,2.0,4.0,89,0.00,,,0.00,Wunderground v.1.15,2013-07-13 08:44:00,
2013-07-13 03:49:00,61.3,58.0,30.01,SSE,154,0.0,4.0,89,0.00,,,0.00,Wunderground v.1.15,2013-07-13 08:49:00,
2013-07-13 03:54:00,61.3,58.0,30.01,SSE,150,4.0,4.0,89,0.00,,,0.00,Wunderground v.1.15,2013-07-13 08:54:00,
2013-07-13 03:59:00,61.4,58.1,30.01,SSE,167,0.0,4.0,89,0.00,,,0.00,Wunderground v.1.15,2013-07-13 08:59:00,
2013-07-13 04:04:00,61.4,58.1,30.01,SE,146,0.0,1.0,89,0.00,,,0.00,Wunderground v.1.15,2013-07-13 09:04:00,
2013-07-13 04:09:00,61.4,58.1,30.01,SE,140,0.0,1.0,89,0.00,,,0.00,Wunderground v.1.15,2013-07-13 09:09:00,
2013-07-13 04:14:00,61.3,58.0,30.01,SSE,149,0.0,1.0,89,0.00,,,0.00,Wunderground v.1.15,2013-07-13 09:14:00,
2013-07-13 04:19:00,61.3,58.0,30.01,SSE,157,1.0,4.0,89,0.00,,,0.00,Wunderground v.1.15,2013-07-13 09:19:00,
2013-07-13 04:24:00,61.4,58.1,30.01,SE,142,4.0,4.0,89,0.00,,,0.00,Wunderground v.1.15,2013-07-13 09:24:00,
2013-07-13 04:29:00,61.5,58.2,30.01,SSE,150,2.0,5.0,89,0.00,,,0.00,Wunderground v.1.15,2013-07-13 09:29:00,
2013-07-13 04:34:00,61.5,57.9,30.01,SE,145,2.0,4.0,88,0.00,,,0.00,Wunderground v.1.15,2013-07-13 09:34:00,
2013-07-13 04:39:00,61.4,57.8,30.01,SE,146,4.0,4.0,88,0.00,,,0.00,Wunderground v.1.15,2013-07-13 09:39:00,
2013-07-13 04:44:00,61.4,57.8,30.01,SSE,152,4.0,4.0,88,0.00,,,0.00,Wunderground v.1.15,2013-07-13 09:44:00,
2013-07-13 04:49:00,61.3,58.0,30.01,SSE,157,4.0,5.0,89,0.00,,,0.00,Wunderground v.1.15,2013-07-13 09:49:00,
2013-07-13 04:54:00,61.3,58.0,30.00,SSE,155,4.0,5.0,89,0.00,,,0.00,Wunderground v.1.15,2013-07-13 09:54:00,
2013-07-13 04:59:00,61.2,57.9,30.00,SSE,157,5.0,5.0,89,0.00,,,0.00,Wunderground v.1.15,2013-07-13 09:59:00,
2013-07-13 05:04:00,61.1,57.8,30.00,SE,130,4.0,5.0,89,0.00,,,0.00,Wunderground v.1.15,2013-07-13 10:04:00,
2013-07-13 05:09:00,60.9,57.6,30.00,SSE,150,2.0,5.0,89,0.00,,,0.00,Wunderground v.1.15,2013-07-13 10:09:00,
2013-07-13 05:14:00,60.8,57.5,30.00,SSE,150,4.0,5.0,89,0.00,,,0.00,Wunderground v.1.15,2013-07-13 10:14:00,
2013-07-13 05:19:00,60.6,57.7,30.00,SSE,147,4.0,5.0,90,0.00,,,0.00,Wunderground v.1.15,2013-07-13 10:19:00,
2013-07-13 05:24:00,60.5,57.6,30.01,SSE,149,2.0,4.0,90,0.00,,,0.00,Wunderground v.1.15,2013-07-13 10:24:00,
2013-07-13 05:29:00,60.5,57.6,30.01,SE,137,0.0,4.0,90,0.00,,,0.00,Wunderground v.1.15,2013-07-13 10:29:00,
2013-07-13 05:34:00,60.5,57.6,30.01,SSE,151,2.0,4.0,90,0.00,,,0.00,Wunderground v.1.15,2013-07-13 10:34:00,
2013-07-13 05:39:00,60.4,57.5,30.01,SSE,157,2.0,4.0,90,0.00,,,0.00,Wunderground v.1.15,2013-07-13 10:39:00,
2013-07-13 05:44:00,60.4,57.5,30.01,SSE,150,1.0,4.0,90,0.00,,,0.00,Wunderground v.1.15,2013-07-13 10:44:00,
2013-07-13 05:49:00,60.4,57.5,30.02,SSE,153,1.0,4.0,90,0.00,,,0.00,Wunderground v.1.15,2013-07-13 10:49:00,
2013-07-13 05:54:00,60.4,57.8,30.01,SSE,152,1.0,2.0,91,0.00,,,0.00,Wunderground v.1.15,2013-07-13 10:54:00,
2013-07-13 05:59:00,60.5,57.9,30.01,SSE,148,1.0,4.0,91,0.00,,,0.00,Wunderground v.1.15,2013-07-13 10:59:00,
2013-07-13 06:04:00,60.6,58.0,30.02,SE,146,2.0,5.0,91,0.00,,,0.00,Wunderground v.1.15,2013-07-13 11:04:00,
2013-07-13 06:09:00,60.7,58.1,30.02,SSE,159,1.0,2.0,91,0.00,,,0.00,Wunderground v.1.15,2013-07-13 11:09:00,
2013-07-13 06:14:00,60.7,58.1,30.02,SSE,157,0.0,3.0,91,0.00,,,0.00,Wunderground v.1.15,2013-07-13 11:14:00,
2013-07-13 06:19:00,60.8,58.2,30.02,SSE,148,1.0,4.0,91,0.00,,,0.00,Wunderground v.1.15,2013-07-13 11:19:00,
2013-07-13 06:24:00,60.9,58.3,30.02,SSE,155,2.0,4.0,91,0.00,,,0.00,Wunderground v.1.15,2013-07-13 11:24:00,
2013-07-13 06:30:00,61.0,58.0,30.03,SSE,159,1.0,4.0,90,0.00,,,0.00,Wunderground v.1.15,2013-07-13 11:30:00,
2013-07-13 06:35:00,61.2,58.2,30.02,SSE,149,2.0,2.0,90,0.00,,,0.00,Wunderground v.1.15,2013-07-13 11:35:00,
2013-07-13 06:40:00,61.3,58.7,30.03,SE,144,0.0,4.0,91,0.00,,,0.00,Wunderground v.1.15,2013-07-13 11:40:00,
2013-07-13 06:45:00,61.5,58.5,30.03,SSE,168,5.0,5.0,90,0.00,,,0.00,Wunderground v.1.15,2013-07-13 11:45:00,
2013-07-13 06:50:00,61.7,58.7,30.03,South,176,4.0,5.0,90,0.00,,,0.00,Wunderground v.1.15,2013-07-13 11:50:00,
2013-07-13 06:55:00,62.0,58.7,30.03,SE,136,4.0,5.0,89,0.00,,,0.00,Wunderground v.1.15,2013-07-13 11:55:00,
2013-07-13 07:00:00,62.2,58.9,30.03,SE,146,4.0,4.0,89,0.00,,,0.00,Wunderground v.1.15,2013-07-13 12:00:00,
2013-07-13 07:05:00,62.3,58.7,30.03,SSE,148,2.0,6.0,88,0.00,,,0.00,Wunderground v.1.15,2013-07-13 12:05:00,
2013-07-13 07:10:00,62.5,58.9,30.04,SSE,150,1.0,5.0,88,0.00,,,0.00,Wunderground v.1.15,2013-07-13 12:10:00,
2013-07-13 07:15:00,62.5,58.9,30.04,SSE,161,2.0,4.0,88,0.00,,,0.00,Wunderground v.1.15,2013-07-13 12:15:00,
2013-07-13 07:20:00,62.6,59.0,30.04,SE,144,5.0,5.0,88,0.00,,,0.00,Wunderground v.1.15,2013-07-13 12:20:00,
2013-07-13 07:25:00,62.7,59.1,30.04,SE,135,5.0,5.0,88,0.00,,,0.00,Wunderground v.1.15,2013-07-13 12:25:00,
2013-07-13 07:30:00,62.8,59.2,30.04,SSE,164,2.0,5.0,88,0.00,,,0.00,Wunderground v.1.15,2013-07-13 12:30:00,
2013-07-13 07:35:00,62.9,59.3,30.05,SSE,150,1.0,4.0,88,0.00,,,0.00,Wunderground v.1.15,2013-07-13 12:35:00,
2013-07-13 07:40:00,63.0,59.4,30.05,SE,140,2.0,4.0,88,0.00,,,0.00,Wunderground v.1.15,2013-07-13 12:40:00,
2013-07-13 07:45:00,63.1,59.5,30.05,SSE,153,4.0,5.0,88,0.00,,,0.00,Wunderground v.1.15,2013-07-13 12:45:00,
2013-07-13 07:50:00,63.4,59.8,30.05,SE,126,4.0,5.0,88,0.00,,,0.00,Wunderground v.1.15,2013-07-13 12:50:00,
2013-07-13 07:55:00,63.5,59.9,30.05,SSE,160,4.0,5.0,88,0.00,,,0.00,Wunderground v.1.15,2013-07-13 12:55:00,
2013-07-13 08:00:00,63.6,60.0,30.05,SSE,150,2.0,4.0,88,0.00,,,0.00,Wunderground v.1.15,2013-07-13 13:00:00,
2013-07-13 08:05:00,63.7,59.8,30.05,SE,140,2.0,5.0,87,0.00,,,0.00,Wunderground v.1.15,2013-07-13 13:05:00,
2013-07-13 08:10:00,63.9,60.0,30.05,SE,141,1.0,2.0,87,0.00,,,0.00,Wunderground v.1.15,2013-07-13 13:10:00,
2013-07-13 08:15:00,64.0,60.1,30.05,SE,134,0.0,4.0,87,0.00,,,0.00,Wunderground v.1.15,2013-07-13 13:15:00,
2013-07-13 08:20:00,64.1,60.2,30.05,SE,131,2.0,4.0,87,0.00,,,0.00,Wunderground v.1.15,2013-07-13 13:20:00,
2013-07-13 08:25:00,64.2,59.9,30.04,SSE,148,1.0,5.0,86,0.00,,,0.00,Wunderground v.1.15,2013-07-13 13:25:00,
2013-07-13 08:30:00,64.2,59.9,30.04,SE,142,5.0,6.0,86,0.00,,,0.00,Wunderground v.1.15,2013-07-13 13:30:00,
2013-07-13 08:35:00,64.3,59.7,30.03,SSE,159,4.0,6.0,85,0.00,,,0.00,Wunderground v.1.15,2013-07-13 13:35:00,
2013-07-13 08:40:00,64.4,59.8,30.03,SSE,150,5.0,7.0,85,0.00,,,0.00,Wunderground v.1.15,2013-07-13 13:40:00,
2013-07-13 08:45:00,64.4,60.1,30.03,SSE,153,2.0,6.0,86,0.00,,,0.00,Wunderground v.1.15,2013-07-13 13:45:00,
2013-07-13 08:50:00,64.4,60.1,30.03,South,173,6.0,6.0,86,0.00,,,0.00,Wunderground v.1.15,2013-07-13 13:50:00,
2013-07-13 08:55:00,64.5,60.2,30.04,South,174,6.0,6.0,86,0.00,,,0.00,Wunderground v.1.15,2013-07-13 13:55:00,
2013-07-13 09:00:00,64.6,60.3,30.04,SSE,160,4.0,7.0,86,0.00,,,0.00,Wunderground v.1.15,2013-07-13 14:00:00,
2013-07-13 09:05:00,64.8,60.2,30.05,SSE,168,2.0,6.0,85,0.00,,,0.00,Wunderground v.1.15,2013-07-13 14:05:00,
2013-07-13 09:10:00,65.0,60.4,30.05,SSE,165,2.0,5.0,85,0.00,,,0.00,Wunderground v.1.15,2013-07-13 14:10:00,
2013-07-13 09:15:00,65.1,60.5,30.05,South,169,4.0,5.0,85,0.00,,,0.00,Wunderground v.1.15,2013-07-13 14:15:00,
2013-07-13 09:20:00,65.3,60.7,30.05,ESE,105,5.0,5.0,85,0.00,,,0.00,Wunderground v.1.15,2013-07-13 14:20:00,
2013-07-13 09:25:00,65.3,60.7,30.05,SSE,151,2.0,6.0,85,0.00,,,0.00,Wunderground v.1.15,2013-07-13 14:25:00,
2013-07-13 09:30:00,65.4,60.4,30.05,SSE,157,5.0,7.0,84,0.00,,,0.00,Wunderground v.1.15,2013-07-13 14:30:00,
2013-07-13 09:35:00,65.5,60.5,30.04,SSE,155,4.0,6.0,84,0.00,,,0.00,Wunderground v.1.15,2013-07-13 14:35:00,
2013-07-13 09:40:00,65.6,60.6,30.04,SSE,155,4.0,6.0,84,0.00,,,0.00,Wunderground v.1.15,2013-07-13 14:40:00,
2013-07-13 09:45:00,65.7,60.7,30.05,SSE,149,5.0,6.0,84,0.00,,,0.00,Wunderground v.1.15,2013-07-13 14:45:00,
2013-07-13 09:52:00,65.8,60.8,30.05,SSE,159,1.0,4.0,84,0.00,,,0.00,Wunderground v.1.15,2013-07-13 14:52:00,
2013-07-13 09:57:00,66.0,61.0,30.05,SSE,159,2.0,6.0,84,0.00,,,0.00,Wunderground v.1.15,2013-07-13 14:57:00,
2013-07-13 10:02:00,66.1,61.1,30.06,ESE,123,2.0,2.0,84,0.00,,,0.00,Wunderground v.1.15,2013-07-13 15:02:00,
2013-07-13 10:07:00,66.3,61.3,30.06,South,186,2.0,4.0,84,0.00,,,0.00,Wunderground v.1.15,2013-07-13 15:07:00,
2013-07-13 10:12:00,66.4,61.4,30.05,ESE,121,4.0,4.0,84,0.00,,,0.00,Wunderground v.1.15,2013-07-13 15:12:00,
2013-07-13 10:17:00,66.5,61.2,30.05,SE,134,2.0,4.0,83,0.00,,,0.00,Wunderground v.1.15,2013-07-13 15:17:00,
2013-07-13 10:22:00,66.5,60.8,30.04,SSE,157,4.0,5.0,82,0.00,,,0.00,Wunderground v.1.15,2013-07-13 15:22:00,
2013-07-13 10:27:00,66.6,60.9,30.05,SSE,150,6.0,7.0,82,0.00,,,0.00,Wunderground v.1.15,2013-07-13 15:27:00,
2013-07-13 10:32:00,66.8,61.5,30.06,South,174,5.0,5.0,83,0.00,,,0.00,Wunderground v.1.15,2013-07-13 15:32:00,
2013-07-13 10:42:00,67.0,61.7,30.05,SSE,153,5.0,5.0,83,0.00,,,0.00,Wunderground v.1.15,2013-07-13 15:42:00,
2013-07-13 10:48:00,67.1,61.8,30.05,SE,138,5.0,6.0,83,0.00,,,0.00,Wunderground v.1.15,2013-07-13 15:48:00,
2013-07-13 10:53:00,67.2,61.9,30.06,SSE,160,4.0,5.0,83,0.00,,,0.00,Wunderground v.1.15,2013-07-13 15:53:00,
2013-07-13 10:58:00,67.3,62.0,30.06,SSE,166,2.0,5.0,83,0.00,,,0.00,Wunderground v.1.15,2013-07-13 15:58:00,
2013-07-13 11:03:00,67.5,62.2,30.06,SSE,167,5.0,5.0,83,0.00,,,0.00,Wunderground v.1.15,2013-07-13 16:03:00,
2013-07-13 11:08:00,67.7,62.3,30.07,South,169,2.0,5.0,83,0.00,,,0.00,Wunderground v.1.15,2013-07-13 16:08:00,
2013-07-13 11:13:00,67.9,62.5,30.06,SSE,153,1.0,3.0,83,0.00,,,0.00,Wunderground v.1.15,2013-07-13 16:13:00,
2013-07-13 11:18:00,68.0,62.6,30.07,SSE,153,1.0,4.0,83,0.00,,,0.00,Wunderground v.1.15,2013-07-13 16:18:00,
2013-07-13 11:23:00,68.1,62.4,30.07,SE,146,0.0,2.0,82,0.00,,,0.00,Wunderground v.1.15,2013-07-13 16:23:00,
2013-07-13 11:28:00,68.2,62.8,30.06,SE,144,0.0,2.0,83,0.00,,,0.00,Wunderground v.1.15,2013-07-13 16:28:00,
2013-07-13 11:33:00,68.3,62.6,30.06,ESE,122,1.0,1.0,82,0.00,,,0.00,Wunderground v.1.15,2013-07-13 16:33:00,
2013-07-13 11:38:00,68.3,62.6,30.06,ESE,118,1.0,2.0,82,0.00,,,0.00,Wunderground v.1.15,2013-07-13 16:38:00,
2013-07-13 11:43:00,68.4,62.7,30.06,SSE,161,1.0,2.0,82,0.00,,,0.00,Wunderground v.1.15,2013-07-13 16:43:00,
2013-07-13 11:48:00,68.4,62.3,30.06,ESE,106,1.0,4.0,81,0.00,,,0.00,Wunderground v.1.15,2013-07-13 16:48:00,
2013-07-13 11:53:00,68.6,62.9,30.07,NNE,28,0.0,1.0,82,0.00,,,0.00,Wunderground v.1.15,2013-07-13 16:53:00,
2013-07-13 11:58:00,68.8,62.7,30.07,East,95,0.0,2.0,81,0.00,,,0.00,Wunderground v.1.15,2013-07-13 16:58:00,
2013-07-13 12:03:00,69.0,63.3,30.07,ESE,122,1.0,1.0,82,0.00,,,0.00,Wunderground v.1.15,2013-07-13 17:03:00,
2013-07-13 12:08:00,69.3,63.2,30.07,SE,135,1.0,2.0,81,0.00,,,0.00,Wunderground v.1.15,2013-07-13 17:08:00,
2013-07-13 12:13:00,69.5,63.4,30.07,SE,134,1.0,2.0,81,0.00,,,0.00,Wunderground v.1.15,2013-07-13 17:13:00,
2013-07-13 12:18:00,69.7,63.3,30.07,SSW,205,0.0,2.0,80,0.00,,,0.00,Wunderground v.1.15,2013-07-13 17:18:00,
2013-07-13 12:23:00,69.9,63.4,30.07,SW,234,0.0,1.0,80,0.00,,,0.00,Wunderground v.1.15,2013-07-13 17:23:00,
2013-07-13 12:28:00,70.1,63.6,30.08,WNW,284,0.0,2.0,80,0.00,,,0.00,Wunderground v.1.15,2013-07-13 17:28:00,
2013-07-13 12:33:00,70.3,63.8,30.08,WNW,284,0.0,1.0,80,0.00,,,0.00,Wunderground v.1.15,2013-07-13 17:33:00,
2013-07-13 12:38:00,70.4,63.9,30.08,WNW,284,0.0,1.0,80,0.00,,,0.00,Wunderground v.1.15,2013-07-13 17:38:00,
2013-07-13 12:43:00,70.5,64.0,30.08,SW,216,0.0,2.0,80,0.00,,,0.00,Wunderground v.1.15,2013-07-13 17:43:00,
2013-07-13 12:48:00,70.6,63.8,30.08,WSW,257,0.0,2.0,79,0.00,,,0.00,Wunderground v.1.15,2013-07-13 17:48:00,
2013-07-13 12:53:00,70.7,64.2,30.08,SSE,157,1.0,1.0,80,0.00,,,0.00,Wunderground v.1.15,2013-07-13 17:53:00,
2013-07-13 12:58:00,70.7,64.2,30.07,ESE,117,1.0,4.0,80,0.00,,,0.00,Wunderground v.1.15,2013-07-13 17:58:00,
2013-07-13 13:03:00,70.8,64.0,30.07,ESE,122,1.0,2.0,79,0.00,,,0.00,Wunderground v.1.15,2013-07-13 18:03:00,
2013-07-13 13:08:00,70.8,64.0,30.07,ESE,122,1.0,2.0,79,0.00,,,0.00,Wunderground v.1.15,2013-07-13 18:08:00,
2013-07-13 13:13:00,71.0,64.2,30.08,South,175,0.0,1.0,79,0.00,,,0.00,Wunderground v.1.15,2013-07-13 18:13:00,
2013-07-13 13:18:00,71.1,64.3,30.08,South,175,0.0,1.0,79,0.00,,,0.00,Wunderground v.1.15,2013-07-13 18:18:00,
2013-07-13 13:23:00,71.2,64.4,30.08,SSE,152,0.0,0.0,79,0.00,,,0.00,Wunderground v.1.15,2013-07-13 18:23:00,
2013-07-13 13:28:00,71.3,64.4,30.07,SE,137,0.0,1.0,79,0.00,,,0.00,Wunderground v.1.15,2013-07-13 18:28:00,
2013-07-13 13:33:00,71.4,64.5,30.07,SE,137,0.0,0.0,79,0.00,,,0.00,Wunderground v.1.15,2013-07-13 18:33:00,
2013-07-13 13:38:00,71.5,64.3,30.07,ESE,117,0.0,2.0,78,0.00,,,0.00,Wunderground v.1.15,2013-07-13 18:38:00,
2013-07-13 13:43:00,71.6,64.0,30.07,SSE,167,1.0,1.0,77,0.00,,,0.00,Wunderground v.1.15,2013-07-13 18:43:00,
2013-07-13 13:48:00,71.7,64.1,30.07,SE,138,0.0,1.0,77,0.00,,,0.00,Wunderground v.1.15,2013-07-13 18:48:00,
2013-07-13 13:53:00,71.8,64.2,30.07,SE,138,1.0,1.0,77,0.00,,,0.00,Wunderground v.1.15,2013-07-13 18:53:00,
2013-07-13 13:58:00,72.0,64.8,30.07,SE,138,0.0,1.0,78,0.00,,,0.00,Wunderground v.1.15,2013-07-13 18:58:00,
2013-07-13 14:04:00,72.2,65.0,30.06,SE,134,0.0,1.0,78,0.00,,,0.00,Wunderground v.1.15,2013-07-13 19:04:00,
2013-07-13 14:09:00,72.4,64.8,30.06,SE,136,2.0,2.0,77,0.00,,,0.00,Wunderground v.1.15,2013-07-13 19:09:00,
2013-07-13 14:14:00,72.6,65.0,30.06,South,187,1.0,2.0,77,0.00,,,0.00,Wunderground v.1.15,2013-07-13 19:14:00,
2013-07-13 14:19:00,72.7,64.7,30.05,SE,146,1.0,2.0,76,0.00,,,0.00,Wunderground v.1.15,2013-07-13 19:19:00,
2013-07-13 14:24:00,72.7,64.7,30.04,SSE,160,2.0,2.0,76,0.00,,,0.00,Wunderground v.1.15,2013-07-13 19:24:00,
2013-07-13 14:29:00,72.7,65.1,30.04,SSE,152,1.0,4.0,77,0.00,,,0.00,Wunderground v.1.15,2013-07-13 19:29:00,
2013-07-13 14:34:00,72.6,65.0,30.04,South,180,3.0,4.0,77,0.00,,,0.00,Wunderground v.1.15,2013-07-13 19:34:00,
2013-07-13 14:39:00,72.4,64.4,30.04,ESE,108,0.0,4.0,76,0.00,,,0.00,Wunderground v.1.15,2013-07-13 19:39:00,
2013-07-13 14:44:00,72.4,64.4,30.04,East,92,2.0,3.0,76,0.00,,,0.00,Wunderground v.1.15,2013-07-13 19:44:00,
2013-07-13 14:49:00,72.3,64.3,30.04,NNE,33,0.0,4.0,76,0.00,,,0.00,Wunderground v.1.15,2013-07-13 19:49:00,
2013-07-13 14:54:00,72.3,64.7,30.04,North,5,1.0,2.0,77,0.00,,,0.00,Wunderground v.1.15,2013-07-13 19:54:00,
2013-07-13 14:59:00,72.4,65.2,30.04,ESE,103,1.0,5.0,78,0.00,,,0.00,Wunderground v.1.15,2013-07-13 19:59:00,
2013-07-13 15:04:00,72.5,64.9,30.04,SE,136,1.0,1.0,77,0.00,,,0.00,Wunderground v.1.15,2013-07-13 20:04:00,
2013-07-13 15:09:00,72.6,65.0,30.03,SSE,155,5.0,5.0,77,0.00,,,0.00,Wunderground v.1.15,2013-07-13 20:09:00,
2013-07-13 15:14:00,72.5,64.9,30.03,ESE,121,1.0,5.0,77,0.00,,,0.00,Wunderground v.1.15,2013-07-13 20:14:00,
2013-07-13 15:19:00,72.6,65.0,30.03,SE,146,4.0,6.0,77,0.00,,,0.00,Wunderground v.1.15,2013-07-13 20:19:00,
2013-07-13 15:24:00,72.6,65.0,30.02,SSE,160,4.0,5.0,77,0.00,,,0.00,Wunderground v.1.15,2013-07-13 20:24:00,
2013-07-13 15:29:00,72.7,65.1,30.02,SSE,148,4.0,10.0,77,0.00,,,0.00,Wunderground v.1.15,2013-07-13 20:29:00,
2013-07-13 15:34:00,72.9,65.3,30.02,ESE,112,2.0,5.0,77,0.00,,,0.00,Wunderground v.1.15,2013-07-13 20:34:00,
2013-07-13 15:39:00,73.0,65.4,30.02,SSE,156,4.0,6.0,77,0.00,,,0.00,Wunderground v.1.15,2013-07-13 20:39:00,
2013-07-13 15:44:00,73.0,65.4,30.01,SSE,163,2.0,6.0,77,0.00,,,0.00,Wunderground v.1.15,2013-07-13 20:44:00,
2013-07-13 15:49:00,72.9,64.9,30.01,SSE,161,6.0,9.0,76,0.00,,,0.00,Wunderground v.1.15,2013-07-13 20:49:00,
2013-07-13 15:54:00,72.8,64.8,30.01,SSE,168,6.0,8.0,76,0.00,,,0.00,Wunderground v.1.15,2013-07-13 20:54:00,
2013-07-13 15:59:00,72.7,64.7,30.01,SSE,164,5.0,12.0,76,0.00,,,0.00,Wunderground v.1.15,2013-07-13 20:59:00,
2013-07-13 16:04:00,72.7,65.1,30.01,SSE,149,2.0,9.0,77,0.00,,,0.00,Wunderground v.1.15,2013-07-13 21:04:00,
2013-07-13 16:09:00,72.7,65.4,30.01,SSE,162,6.0,7.0,78,0.00,,,0.00,Wunderground v.1.15,2013-07-13 21:09:00,
2013-07-13 16:14:00,72.6,65.3,30.01,SSE,148,4.0,7.0,78,0.00,,,0.00,Wunderground v.1.15,2013-07-13 21:14:00,
2013-07-13 16:19:00,72.6,65.7,30.02,SSE,150,5.0,7.0,79,0.00,,,0.00,Wunderground v.1.15,2013-07-13 21:19:00,
2013-07-13 16:24:00,72.6,66.1,30.02,SE,128,2.0,6.0,80,0.00,,,0.00,Wunderground v.1.15,2013-07-13 21:24:00,
2013-07-13 16:29:00,72.7,65.8,30.02,South,181,3.0,7.0,79,0.00,,,0.00,Wunderground v.1.15,2013-07-13 21:29:00,
2013-07-13 16:34:00,72.8,65.9,30.03,SE,142,1.0,4.0,79,0.00,,,0.00,Wunderground v.1.15,2013-07-13 21:34:00,
2013-07-13 16:39:00,73.0,66.5,30.02,ESE,107,6.0,6.0,80,0.00,,,0.00,Wunderground v.1.15,2013-07-13 21:39:00,
2013-07-13 16:44:00,73.2,66.7,30.02,SSE,151,5.0,5.0,80,0.00,,,0.00,Wunderground v.1.15,2013-07-13 21:44:00,
2013-07-13 16:49:00,73.4,66.9,30.02,South,171,2.0,6.0,80,0.00,,,0.00,Wunderground v.1.15,2013-07-13 21:49:00,
2013-07-13 16:54:00,73.6,66.7,30.03,SE,129,1.0,5.0,79,0.00,,,0.00,Wunderground v.1.15,2013-07-13 21:54:00,
2013-07-13 16:59:00,73.8,66.5,30.03,SE,140,2.0,5.0,78,0.00,,,0.00,Wunderground v.1.15,2013-07-13 21:59:00,
2013-07-13 17:04:00,73.9,66.6,30.03,SSE,149,5.0,7.0,78,0.00,,,0.00,Wunderground v.1.15,2013-07-13 22:04:00,
2013-07-13 17:09:00,74.0,67.1,30.03,SSE,163,2.0,5.0,79,0.00,,,0.00,Wunderground v.1.15,2013-07-13 22:09:00,
2013-07-13 17:14:00,74.1,66.8,30.03,SSE,158,4.0,6.0,78,0.00,,,0.00,Wunderground v.1.15,2013-07-13 22:14:00,
2013-07-13 17:19:00,74.2,66.9,30.03,SSE,158,2.0,6.0,78,0.00,,,0.00,Wunderground v.1.15,2013-07-13 22:19:00,
2013-07-13 17:25:00,74.2,66.9,30.03,SSE,163,2.0,5.0,78,0.00,,,0.00,Wunderground v.1.15,2013-07-13 22:25:00,
2013-07-13 17:30:00,74.2,67.3,30.03,SE,146,5.0,5.0,79,0.00,,,0.00,Wunderground v.1.15,2013-07-13 22:30:00,
2013-07-13 17:35:00,74.1,67.2,30.03,SE,129,1.0,5.0,79,0.00,,,0.00,Wunderground v.1.15,2013-07-13 22:35:00,
2013-07-13 17:40:00,74.0,67.1,30.02,SE,138,0.0,5.0,79,0.00,,,0.00,Wunderground v.1.15,2013-07-13 22:40:00,
2013-07-13 17:45:00,74.0,67.1,30.02,SSE,153,2.0,4.0,79,0.00,,,0.00,Wunderground v.1.15,2013-07-13 22:45:00,
2013-07-13 17:50:00,74.0,67.4,30.02,SSE,149,2.0,5.0,80,0.00,,,0.00,Wunderground v.1.15,2013-07-13 22:50:00,
2013-07-13 17:55:00,74.0,67.4,30.02,SSE,151,2.0,5.0,80,0.00,,,0.00,Wunderground v.1.15,2013-07-13 22:55:00,
2013-07-13 18:00:00,74.1,67.5,30.02,SSE,147,0.0,2.0,80,0.00,,,0.00,Wunderground v.1.15,2013-07-13 23:00:00,
2013-07-13 18:05:00,74.2,67.6,30.02,SE,137,0.0,2.0,80,0.00,,,0.00,Wunderground v.1.15,2013-07-13 23:05:00,
2013-07-13 18:10:00,74.2,67.6,30.03,SSE,151,0.0,1.0,80,0.00,,,0.00,Wunderground v.1.15,2013-07-13 23:10:00,
2013-07-13 18:15:00,74.3,68.1,30.02,SSE,151,0.0,1.0,81,0.00,,,0.00,Wunderground v.1.15,2013-07-13 23:15:00,
2013-07-13 18:20:00,74.4,68.2,30.02,SSE,151,0.0,1.0,81,0.00,,,0.00,Wunderground v.1.15,2013-07-13 23:20:00,
2013-07-13 18:25:00,74.5,68.3,30.02,SSE,151,0.0,1.0,81,0.00,,,0.00,Wunderground v.1.15,2013-07-13 23:25:00,
2013-07-13 18:30:00,74.7,68.5,30.02,SSE,151,0.0,1.0,81,0.00,,,0.00,Wunderground v.1.15,2013-07-13 23:30:00,
2013-07-13 18:35:00,74.8,68.6,30.02,SSE,151,0.0,0.0,81,0.00,,,0.00,Wunderground v.1.15,2013-07-13 23:35:00,
2013-07-13 18:40:00,74.9,68.7,30.01,SSE,151,0.0,1.0,81,0.00,,,0.00,Wunderground v.1.15,2013-07-13 23:40:00,
2013-07-13 18:45:00,74.9,68.3,30.01,SE,137,0.0,2.0,80,0.00,,,0.00,Wunderground v.1.15,2013-07-13 23:45:00,
2013-07-13 18:50:00,75.1,68.9,30.01,SSE,160,0.0,2.0,81,0.00,,,0.00,Wunderground v.1.15,2013-07-13 23:50:00,
2013-07-13 18:55:00,75.1,68.9,30.01,SSE,148,1.0,1.0,81,0.00,,,0.00,Wunderground v.1.15,2013-07-13 23:55:00,
2013-07-13 19:00:00,75.1,68.5,30.01,NE,49,0.0,1.0,80,0.00,,,0.00,Wunderground v.1.15,2013-07-14 00:00:00,
2013-07-13 19:05:00,75.1,68.5,30.01,ESE,103,0.0,1.0,80,0.00,,,0.00,Wunderground v.1.15,2013-07-14 00:05:00,
2013-07-13 19:10:00,74.9,67.9,30.01,ENE,78,1.0,1.0,79,0.00,,,0.00,Wunderground v.1.15,2013-07-14 00:10:00,
2013-07-13 19:15:00,74.8,67.8,30.01,South,178,0.0,1.0,79,0.00,,,0.00,Wunderground v.1.15,2013-07-14 00:15:00,
2013-07-13 19:22:00,74.6,67.7,30.01,SW,231,0.0,0.0,79,0.00,,,0.00,Wunderground v.1.15,2013-07-14 00:22:00,
2013-07-13 19:27:00,74.5,67.9,30.01,SSW,210,0.0,1.0,80,0.00,,,0.00,Wunderground v.1.15,2013-07-14 00:27:00,
2013-07-13 19:32:00,74.4,67.8,30.02,SSW,210,0.0,0.0,80,0.00,,,0.00,Wunderground v.1.15,2013-07-14 00:32:00,
2013-07-13 19:37:00,74.3,67.7,30.02,SSW,210,0.0,1.0,80,0.00,,,0.00,Wunderground v.1.15,2013-07-14 00:37:00,
2013-07-13 19:42:00,74.3,67.7,30.02,SSW,210,0.0,0.0,80,0.00,,,0.00,Wunderground v.1.15,2013-07-14 00:42:00,
2013-07-13 19:47:00,74.2,67.6,30.02,SSW,210,0.0,0.0,80,0.00,,,0.00,Wunderground v.1.15,2013-07-14 00:47:00,
2013-07-13 19:52:00,74.1,67.5,30.02,SSW,210,0.0,0.0,80,0.00,,,0.00,Wunderground v.1.15,2013-07-14 00:52:00,
2013-07-13 19:57:00,74.0,67.4,30.02,SSW,210,0.0,0.0,80,0.00,,,0.00,Wunderground v.1.15,2013-07-14 00:57:00,
2013-07-13 20:02:00,73.8,67.6,30.02,SSW,210,0.0,0.0,81,0.00,,,0.00,Wunderground v.1.15,2013-07-14 01:02:00,
2013-07-13 20:08:00,73.6,67.4,30.02,SSW,210,0.0,0.0,81,0.00,,,0.00,Wunderground v.1.15,2013-07-14 01:08:00,
2013-07-13 20:13:00,73.4,67.2,30.02,SSW,210,0.0,0.0,81,0.00,,,0.00,Wunderground v.1.15,2013-07-14 01:13:00,
2013-07-13 20:18:00,73.3,67.1,30.02,SSW,210,0.0,0.0,81,0.00,,,0.00,Wunderground v.1.15,2013-07-14 01:18:00,
2013-07-13 20:23:00,73.1,67.3,30.02,SSW,210,0.0,1.0,82,0.00,,,0.00,Wunderground v.1.15,2013-07-14 01:23:00,
2013-07-13 20:28:00,72.9,67.1,30.02,SSW,210,0.0,1.0,82,0.00,,,0.00,Wunderground v.1.15,2013-07-14 01:28:00,
2013-07-13 20:33:00,72.7,66.9,30.02,SSW,210,0.0,0.0,82,0.00,,,0.00,Wunderground v.1.15,2013-07-14 01:33:00,
2013-07-13 20:38:00,72.5,67.0,30.02,SSW,210,0.0,0.0,83,0.00,,,0.00,Wunderground v.1.15,2013-07-14 01:38:00,
2013-07-13 20:43:00,72.3,66.8,30.02,SSW,210,0.0,0.0,83,0.00,,,0.00,Wunderground v.1.15,2013-07-14 01:43:00,
2013-07-13 20:48:00,72.1,67.0,30.02,SSW,210,0.0,0.0,84,0.00,,,0.00,Wunderground v.1.15,2013-07-14 01:48:00,
2013-07-13 20:53:00,71.8,66.7,30.02,SSW,210,0.0,0.0,84,0.00,,,0.00,Wunderground v.1.15,2013-07-14 01:53:00,
2013-07-13 20:58:00,71.5,66.4,30.02,SSW,210,0.0,0.0,84,0.00,,,0.00,Wunderground v.1.15,2013-07-14 01:58:00,
2013-07-13 21:03:00,71.3,66.2,30.02,SSW,210,0.0,0.0,84,0.00,,,0.00,Wunderground v.1.15,2013-07-14 02:03:00,
2013-07-13 21:08:00,71.0,66.3,30.02,SSW,210,0.0,0.0,85,0.00,,,0.00,Wunderground v.1.15,2013-07-14 02:08:00,
2013-07-13 21:13:00,70.8,66.1,30.03,SSW,210,0.0,0.0,85,0.00,,,0.00,Wunderground v.1.15,2013-07-14 02:13:00,
2013-07-13 21:18:00,70.4,65.7,30.03,SSW,210,0.0,0.0,85,0.00,,,0.00,Wunderground v.1.15,2013-07-14 02:18:00,
2013-07-13 21:23:00,69.9,65.5,30.03,SSW,210,0.0,0.0,86,0.00,,,0.00,Wunderground v.1.15,2013-07-14 02:23:00,
2013-07-13 21:28:00,69.5,65.5,30.03,SSW,210,0.0,0.0,87,0.00,,,0.00,Wunderground v.1.15,2013-07-14 02:28:00,
2013-07-13 21:33:00,69.2,65.5,30.04,East,100,1.0,1.0,88,0.00,,,0.00,Wunderground v.1.15,2013-07-14 02:33:00,
2013-07-13 21:38:00,68.9,65.2,30.04,East,98,0.0,2.0,88,0.00,,,0.00,Wunderground v.1.15,2013-07-14 02:38:00,
2013-07-13 21:43:00,68.5,65.1,30.04,East,98,0.0,0.0,89,0.00,,,0.00,Wunderground v.1.15,2013-07-14 02:43:00,
2013-07-13 21:48:00,68.3,64.9,30.03,East,98,0.0,0.0,89,0.00,,,0.00,Wunderground v.1.15,2013-07-14 02:48:00,
2013-07-13 21:53:00,68.1,64.7,30.04,East,98,0.0,0.0,89,0.00,,,0.00,Wunderground v.1.15,2013-07-14 02:53:00,
2013-07-13 21:58:00,67.9,64.9,30.03,East,98,0.0,1.0,90,0.00,,,0.00,Wunderground v.1.15,2013-07-14 02:58:00,
2013-07-13 22:03:00,67.9,64.9,30.03,East,98,1.0,1.0,90,0.00,,,0.00,Wunderground v.1.15,2013-07-14 03:03:00,
2013-07-13 22:08:00,68.0,65.0,30.03,East,98,0.0,2.0,90,0.00,,,0.00,Wunderground v.1.15,2013-07-14 03:08:00,
2013-07-13 22:13:00,68.1,65.1,30.03,East,98,0.0,1.0,90,0.00,,,0.00,Wunderground v.1.15,2013-07-14 03:13:00,
2013-07-13 22:18:00,68.3,65.3,30.03,East,98,1.0,1.0,90,0.00,,,0.00,Wunderground v.1.15,2013-07-14 03:18:00,
2013-07-13 22:23:00,68.3,65.3,30.03,East,98,0.0,0.0,90,0.00,,,0.00,Wunderground v.1.15,2013-07-14 03:23:00,
2013-07-13 22:28:00,68.4,65.0,30.03,East,98,1.0,1.0,89,0.00,,,0.00,Wunderground v.1.15,2013-07-14 03:28:00,
2013-07-13 22:33:00,68.4,65.0,30.03,East,98,0.0,1.0,89,0.00,,,0.00,Wunderground v.1.15,2013-07-14 03:33:00,
2013-07-13 22:38:00,68.4,64.7,30.03,East,98,0.0,1.0,88,0.00,,,0.00,Wunderground v.1.15,2013-07-14 03:38:00,
2013-07-13 22:43:00,68.3,64.6,30.04,East,98,1.0,1.0,88,0.00,,,0.00,Wunderground v.1.15,2013-07-14 03:43:00,
2013-07-13 22:48:00,68.2,64.5,30.04,East,98,0.0,1.0,88,0.00,,,0.00,Wunderground v.1.15,2013-07-14 03:48:00,
2013-07-13 22:53:00,68.1,64.4,30.04,East,98,1.0,1.0,88,0.00,,,0.00,Wunderground v.1.15,2013-07-14 03:53:00,
2013-07-13 22:58:00,68.1,64.4,30.04,East,98,1.0,2.0,88,0.00,,,0.00,Wunderground v.1.15,2013-07-14 03:58:00,
2013-07-13 23:02:00,68.1,64.4,30.04,NNW,333,0.0,0.0,88,0.00,,,0.00,Wunderground v.1.15,2013-07-14 04:02:00,
2013-07-13 23:03:00,68.1,64.4,30.04,NNW,333,0.0,0.0,88,0.00,,,0.00,Wunderground v.1.15,2013-07-14 04:03:00,
2013-07-13 23:08:00,68.0,64.3,30.04,NW,315,0.0,1.0,88,0.00,,,0.00,Wunderground v.1.15,2013-07-14 04:08:00,
2013-07-13 23:13:00,67.9,64.2,30.04,NW,315,0.0,0.0,88,0.00,,,0.00,Wunderground v.1.15,2013-07-14 04:13:00,
2013-07-13 23:18:00,67.7,64.0,30.04,NW,315,0.0,2.0,88,0.00,,,0.00,Wunderground v.1.15,2013-07-14 04:18:00,
2013-07-13 23:23:00,67.5,63.8,30.04,NW,315,0.0,0.0,88,0.00,,,0.00,Wunderground v.1.15,2013-07-14 04:23:00,
2013-07-13 23:28:00,67.4,63.7,30.04,NW,315,0.0,2.0,88,0.00,,,0.00,Wunderground v.1.15,2013-07-14 04:28:00,
2013-07-13 23:33:00,67.3,63.6,30.04,NW,315,0.0,1.0,88,0.00,,,0.00,Wunderground v.1.15,2013-07-14 04:33:00,
2013-07-13 23:38:00,67.2,63.5,30.04,NW,315,0.0,2.0,88,0.00,,,0.00,Wunderground v.1.15,2013-07-14 04:38:00,
2013-07-13 23:43:00,67.2,63.5,30.04,NW,315,0.0,1.0,88,0.00,,,0.00,Wunderground v.1.15,2013-07-14 04:43:00,
2013-07-13 23:48:00,67.1,63.4,30.04,NW,315,0.0,1.0,88,0.00,,,0.00,Wunderground v.1.15,2013-07-14 04:48:00,
2013-07-13 23:53:00,66.9,63.2,30.04,WNW,299,1.0,1.0,88,0.00,,,0.00,Wunderground v.1.15,2013-07-14 04:53:00,